FALCON 9 DEB (46388 NORAD) Tracking and Keplerian Element Data

This shows tracking and keplerian element data for the satellite.

Feedback or suggestion? Click here.




ElementValue
Catalog46388
NameFALCON 9 DEB
Epoch Orbit402
Epoch Day268.54690586
Epoch Year2020
RAAN321.6529
Inclination52.996
Eccentricity0.0048691
Argument of Perigee117.3037
Mean Anonmoly243.2969
Mean Motion16.18447792
Decay Rate0.01112861
L11 46388U 20062BR 20268.54690586 .01112861 11791-4 49335-3 0 9990
L22 46388 52.9960 321.6529 0048691 117.3037 243.2969 16.18447792 4020

Live tracking and technical data element details for FALCON 9 DEB (NORAD 46388). FALCON 9 DEB can be tracked NOW for your location showing map with azimuth and elevation plus other details from your city location.

Track the satellite on the map from your city or location and see movement details for azimuth, elevation, latitude, longitude, range, height, and movement on the map or in text.







IsCatalogInMostPopularTable: catalog: 46388, numindb: 4
Update: records affected: 1



GetName: 46388 FALCON 9 DEB

Hit Count: updated at: Sat, 26 Sep 2020 15:45:51 GMT